Location: Unspecified
(0.0000°N, 0.0000°E)
Time: 17:57:25
(UTC+00:00)

Explorer 7 - Visible Passes

Search period start: 24 February 2018 00:00
Search period end: 06 March 2018 00:00
Orbit: 485 x 682 km, 50.3° (Epoch: 24 February)

Date Brightness Start Highest point End Pass type
(mag) Time Alt. Az. Time Alt. Az. Time Alt. Az.
24 Feb 9.0 20:17:11 10° SW 20:18:44 22° SW 20:18:44 22° SW visible
25 Feb 8.8 18:44:20 10° SSE 18:46:28 14° SE 18:48:32 10° E visible
25 Feb 9.2 20:23:02 10° WSW 20:24:57 23° W 20:24:57 23° W visible
26 Feb 7.8 18:48:22 10° S 18:51:53 29° SE 18:54:53 14° ENE visible
26 Feb 9.7 20:29:43 10° W 20:31:18 15° WNW 20:31:18 15° WNW visible
27 Feb 6.8 18:53:19 10° SSW 18:57:18 66° SE 19:01:18 11° NE visible
28 Feb 7.5 18:58:50 10° SW 19:02:45 52° NW 19:06:55 10° NNE visible
01 Mar 9.8 05:22:54 10° NNE 05:25:43 16° NE 05:28:29 10° E visible
01 Mar 9.0 19:04:57 10° WSW 19:08:15 24° NW 19:11:42 10° N visible
02 Mar 8.9 05:27:03 10° N 05:31:15 31° NE 05:35:16 10° ESE visible
02 Mar 9.8 19:12:28 10° WNW 19:13:48 11° NW 19:15:09 10° NNW visible
03 Mar 7.6 05:32:00 10° NNW 05:36:44 64° NE 05:41:13 10° SE visible
04 Mar 10.1 04:00:46 10° NE 04:01:32 10° NE 04:02:19 10° ENE visible
04 Mar 7.2 05:37:28 10° NW 05:42:10 60° SW 05:46:38 10° SSE visible
05 Mar 9.3 04:06:13 20° NE 04:07:06 21° NE 04:10:37 10° E visible
05 Mar 8.1 05:43:29 10° WNW 05:47:35 29° SW 05:51:31 10° S visible
